Suffolk, VA

9:33 PM EDT on September 19, 2017 (GMT -0400)
Suffolk Municipal

Weather History for KSFQ - February, 2012

Change the Weather History Date:

Thursday, February 23, 2012

  Actual Average Record
Temperature  
Mean Temperature 62 °F -  
Max Temperature 75 °F 55 °F 77 °F (1975)
Min Temperature 48 °F 36 °F 14 °F (1963)
Degree Days  
Heating Degree Days 4    
Growing Degree Days 12 (Base 50)    
Moisture  
Dew Point 53 °F    
Average Humidity 76    
Maximum Humidity 100    
Minimum Humidity 53    
Precipitation  
Precipitation 0.02 in - - ()
Sea Level Pressure  
Sea Level Pressure 29.64 in    
Wind  
Wind Speed 8 mph (SW)    
Max Wind Speed 18 mph    
Max Gust Speed 26 mph    
Visibility 10 miles    
Events Rain    
Averages and records for this station are not official NWS values.
T = Trace of Precipitation, MM = Missing Value Source: NWS Daily Summary

Daily Weather History Graph

Daily Weather History Graph

Search for Another Location

Airport or City:

Trip Planner

Search our weather history database for the weather conditions in past years. The results will help you decide how hot, cold, wet, or windy it might be!

Date:

Astronomy

Feb. 23, 2012 Rise Set
Actual Time 6:45 AM EST 5:54 PM EST
Civil Twilight 6:19 AM EST 6:20 PM EST
Nautical Twilight 5:49 AM EST 6:50 PM EST
Astronomical Twilight 5:19 AM EST 7:20 PM EST
Moon 7:15 AM EST (2/23) 7:52 PM EST (2/23)
Length of Visible Light 12h 01m
Length of Day
11h 08m
Waxing Crescent, 3% of the Moon is Illuminated
Feb 23
Waxing Crescent
Feb 29
First Quarter
Mar 8
Full
Mar 14
Last Quarter
Mar 22
New

Hourly Weather History & Observations

Time (EST) Temp. Dew Point Humidity Pressure Visibility Wind Dir Wind Speed Gust Speed Precip Events Conditions
12:15 AM 57.2 °F 48.2 °F 72% 29.57 in 10.0 mi South 9.2 mph - N/A   Clear
12:35 AM 57.2 °F 48.2 °F 72% 29.58 in 10.0 mi SSW 5.8 mph - N/A   Clear
12:55 AM 57.2 °F 50.0 °F 77% 29.57 in 10.0 mi SSW 8.1 mph - N/A   Clear
1:15 AM 57.2 °F 50.0 °F 77% 29.57 in 10.0 mi SSW 6.9 mph - N/A   Clear
1:35 AM 57.2 °F 50.0 °F 77% 29.61 in 10.0 mi WNW 8.1 mph - N/A   Mostly Cloudy
1:55 AM 60.8 °F 51.8 °F 72% 29.62 in 10.0 mi West 18.4 mph 21.9 mph N/A   Overcast
2:15 AM 57.2 °F 48.2 °F 72% 29.63 in 10.0 mi WNW 15.0 mph 26.5 mph N/A   Overcast
2:35 AM 55.4 °F 50.0 °F 82% 29.63 in 10.0 mi West 8.1 mph - N/A Rain Rain
2:55 AM 53.6 °F 51.8 °F 94% 29.60 in 10.0 mi Calm Calm - 0.02 in Rain Light Rain
3:15 AM 53.6 °F 51.8 °F 94% 29.56 in 10.0 mi South 6.9 mph - N/A   Overcast
3:35 AM 51.8 °F 50.0 °F 94% 29.57 in 10.0 mi South 5.8 mph - N/A   Scattered Clouds
3:55 AM 51.8 °F 48.2 °F 88% 29.59 in 10.0 mi WSW 4.6 mph - N/A   Clear
4:15 AM 50.0 °F 48.2 °F 94% 29.59 in 10.0 mi SSW 5.8 mph - N/A   Clear
4:35 AM 50.0 °F 48.2 °F 94% 29.61 in 10.0 mi SW 5.8 mph - N/A   Clear
4:55 AM 51.8 °F 50.0 °F 94% 29.61 in 10.0 mi SW 6.9 mph - N/A   Clear
5:15 AM 50.0 °F 48.2 °F 94% 29.61 in 10.0 mi WSW 5.8 mph - N/A   Clear
5:35 AM 50.0 °F 48.2 °F 94% 29.62 in 10.0 mi SW 5.8 mph - N/A   Clear
5:55 AM 50.0 °F 48.2 °F 94% 29.62 in 10.0 mi WSW 6.9 mph - N/A   Clear
6:15 AM 50.0 °F 48.2 °F 94% 29.63 in 10.0 mi SW 4.6 mph - N/A   Clear
6:35 AM 50.0 °F 48.2 °F 94% 29.63 in 10.0 mi SW 4.6 mph - N/A   Clear
6:55 AM 48.2 °F 48.2 °F 100% 29.64 in 10.0 mi SW 3.5 mph - N/A   Clear
7:15 AM 50.0 °F 48.2 °F 94% 29.65 in 10.0 mi SW 5.8 mph - N/A   Clear
7:35 AM 51.8 °F 50.0 °F 94% 29.65 in 10.0 mi SW 4.6 mph - N/A   Clear
7:55 AM 51.8 °F 51.8 °F 100% 29.66 in 10.0 mi WSW 4.6 mph - N/A   Clear
8:15 AM 53.6 °F 51.8 °F 94% 29.67 in 10.0 mi SW 9.2 mph - N/A   Clear
8:35 AM 55.4 °F 51.8 °F 88% 29.68 in 10.0 mi SW 10.4 mph - N/A   Clear
8:55 AM 55.4 °F 51.8 °F 88% 29.69 in 10.0 mi SW 9.2 mph - N/A   Clear
9:15 AM 57.2 °F 51.8 °F 82% 29.69 in 10.0 mi SSW 9.2 mph - N/A   Clear
9:35 AM 60.8 °F 51.8 °F 72% 29.69 in 10.0 mi WSW 9.2 mph - N/A   Clear
9:55 AM 60.8 °F 53.6 °F 77% 29.69 in 10.0 mi WSW 11.5 mph - N/A   Clear
10:15 AM 62.6 °F 53.6 °F 72% 29.69 in 10.0 mi WSW 11.5 mph - N/A   Clear
10:35 AM 64.4 °F 53.6 °F 68% 29.69 in 10.0 mi WSW 11.5 mph - N/A   Clear
10:55 AM 64.4 °F 55.4 °F 73% 29.67 in 10.0 mi SW 13.8 mph 18.4 mph N/A   Unknown
11:15 AM 66.2 °F 55.4 °F 68% 29.67 in 10.0 mi SW 8.1 mph 16.1 mph N/A   Clear
11:35 AM 66.2 °F 57.2 °F 73% 29.66 in 10.0 mi SSW 11.5 mph - N/A   Clear
11:55 AM 68.0 °F 55.4 °F 64% 29.66 in 10.0 mi SW 11.5 mph 18.4 mph N/A   Clear
12:15 PM 69.8 °F 57.2 °F 64% 29.65 in 10.0 mi SW 12.7 mph - N/A   Clear
12:35 PM 69.8 °F 57.2 °F 64% 29.64 in 10.0 mi SW 9.2 mph 19.6 mph N/A   Clear
12:55 PM 71.6 °F 57.2 °F 60% 29.63 in 10.0 mi SSW 10.4 mph 18.4 mph N/A   Clear
1:15 PM 71.6 °F 55.4 °F 57% 29.63 in 10.0 mi SW 9.2 mph 17.3 mph N/A   Clear
1:35 PM 71.6 °F 57.2 °F 60% 29.63 in 10.0 mi WSW 15.0 mph 19.6 mph N/A   Clear
1:55 PM 73.4 °F 57.2 °F 57% 29.63 in 10.0 mi WSW 11.5 mph - N/A   Clear
2:15 PM 73.4 °F 57.2 °F 57% 29.62 in 10.0 mi West 13.8 mph 19.6 mph N/A   Clear
2:35 PM 73.4 °F 57.2 °F 57% 29.61 in 10.0 mi WSW 10.4 mph 18.4 mph N/A   Clear
2:55 PM 75.2 °F 57.2 °F 53% 29.62 in 10.0 mi West 12.7 mph - N/A   Clear
3:35 PM 73.4 °F 55.4 °F 53% 29.63 in 10.0 mi West 13.8 mph 18.4 mph N/A   Scattered Clouds
3:55 PM 73.4 °F 55.4 °F 53% 29.64 in 10.0 mi WSW 13.8 mph - N/A   Scattered Clouds
4:15 PM 73.4 °F 55.4 °F 53% 29.64 in 10.0 mi SW 10.4 mph - N/A   Scattered Clouds
4:55 PM 71.6 °F 55.4 °F 57% 29.65 in 10.0 mi SW 6.9 mph - N/A   Clear
5:15 PM 71.6 °F 57.2 °F 60% 29.65 in 10.0 mi SW 3.5 mph - N/A   Scattered Clouds
5:35 PM 71.6 °F 57.2 °F 60% 29.66 in 10.0 mi SSW 3.5 mph - N/A   Scattered Clouds
5:55 PM 69.8 °F 57.2 °F 64% 29.66 in 10.0 mi SSW 4.6 mph - N/A   Clear
6:15 PM 68.0 °F 57.2 °F 68% 29.66 in 10.0 mi South 4.6 mph - N/A   Clear
6:35 PM 64.4 °F 57.2 °F 77% 29.66 in 10.0 mi Calm Calm - N/A   Clear
6:55 PM 62.6 °F 55.4 °F 77% 29.66 in 10.0 mi Calm Calm - N/A   Clear
7:15 PM 60.8 °F 55.4 °F 82% 29.67 in 10.0 mi Calm Calm - N/A   Clear
7:35 PM 59.0 °F 55.4 °F 88% 29.67 in 10.0 mi Calm Calm - N/A   Clear
7:55 PM 59.0 °F 55.4 °F 88% 29.67 in 10.0 mi Calm Calm - N/A   Clear
8:15 PM 57.2 °F 53.6 °F 88% 29.67 in 10.0 mi Calm Calm - N/A   Clear
8:35 PM 57.2 °F 55.4 °F 94% 29.67 in 10.0 mi Calm Calm - N/A   Mostly Cloudy
8:55 PM 57.2 °F 55.4 °F 94% 29.66 in 10.0 mi Calm Calm - N/A   Scattered Clouds
9:15 PM 62.6 °F 55.4 °F 77% 29.66 in 10.0 mi SSE 5.8 mph - N/A   Clear
9:35 PM 62.6 °F 55.4 °F 77% 29.67 in 10.0 mi SSE 5.8 mph - N/A   Clear
9:55 PM 60.8 °F 55.4 °F 82% 29.66 in 10.0 mi SSE 6.9 mph - N/A   Clear
10:35 PM 62.6 °F 57.2 °F 82% 29.65 in 10.0 mi South 6.9 mph - N/A   Clear
10:55 PM 62.6 °F 57.2 °F 82% 29.64 in 10.0 mi South 5.8 mph - N/A   Clear
11:35 PM 62.6 °F 59.0 °F 88% 29.62 in 10.0 mi South 5.8 mph - N/A   Clear
11:55 PM 62.6 °F 59.0 °F 88% 29.61 in 10.0 mi South 5.8 mph - N/A   Clear